Le nostre stazioni meteo in Italia

Pubblicità
Il mio iltempo24.it
Ferrara, Italia (16133): Temperatura & dewpoint: 16.01.2020 00:00:00 - 22.01.2020 00:00:00 (CET)Ferrara, Italia (16133): velocità del vento: 16.01.2020 00:00:00 - 22.01.2020 00:00:00 (CET)Ferrara, Italia (16133): direzione del vento: 16.01.2020 00:00:00 - 22.01.2020 00:00:00 (CET)Ferrara, Italia (16133): reduced air pressure: 16.01.2020 00:00:00 - 22.01.2020 00:00:00 (CET)Ferrara, Italia (16133): precipitazioni: 16.01.2020 00:00:00 - 22.01.2020 00:00:00 (CET)
Data & Tempo tt [°C] td [°C] ff [km/h] ff [kn] dd ppp [hPa] rr [mm]
22.01.2020 00:00:00 1,1 -0,4 - - - 1039,6 -
21.01.2020 23:00:00 3,6 0,3 5 3 O 1039,5 0,0
21.01.2020 22:00:00 1,5 -0,6 - - - 1040,2 -
21.01.2020 21:00:00 4,9 -0,1 4 2 ONO 1039,8 0,0
21.01.2020 20:00:00 2,5 -1,5 - - - 1040,4 -
21.01.2020 19:00:00 5,6 -0,3 4 2 SO 1040,0 0,0
21.01.2020 18:00:00 6,5 -0,7 4 2 ONO 1040,0 0,0
21.01.2020 17:00:00 7,0 -0,7 - - - 1040,1 0,0
21.01.2020 16:00:00 7,7 -2,5 - - - 1041,2 -
21.01.2020 15:00:00 7,9 -3,3 9 5 ONO 1040,9 0,0
21.01.2020 14:00:00 8,3 -2,6 9 5 NO 1041,3 0,0
21.01.2020 13:00:00 7,0 -1,9 10 5 ONO 1042,4 0,0
21.01.2020 12:00:00 6,3 -2,6 8 4 ONO 1043,1 0,0
21.01.2020 11:00:00 4,9 1,0 5 3 ONO 1044,0 -
21.01.2020 10:00:00 1,9 -0,1 - - - 1044,0 -
21.01.2020 09:00:00 2,2 -0,9 9 5 ONO 1043,9 -
21.01.2020 08:00:00 0,9 -1,8 9 5 ONO 1043,4 0,0
21.01.2020 07:00:00 0,9 -2,2 11 6 ONO 1043,8 0,0
21.01.2020 06:00:00 0,6 -3,2 - - - 1043,5 -
21.01.2020 05:00:00 3,8 -2,8 8 5 NNO 1043,1 0,0
21.01.2020 04:00:00 2,5 -1,9 5 3 NNO 1044,2 -
21.01.2020 03:00:00 3,1 -1,6 9 5 N 1044,0 0,0
21.01.2020 02:00:00 2,6 -1,3 11 6 N 1044,7 -
21.01.2020 01:00:00 3,0 -1,2 10 5 N 1044,1 0,0
21.01.2020 00:00:00 3,0 -0,9 13 7 N 1044,9 -
20.01.2020 23:00:00 3,5 0,5 - - - 1044,8 -
20.01.2020 22:00:00 4,6 1,1 8 5 NNE 1044,1 0,0
20.01.2020 21:00:00 4,6 1,1 10 5 NNE 1043,7 0,0
20.01.2020 20:00:00 5,1 1,2 8 5 NNE 1043,3 0,0
20.01.2020 19:00:00 5,7 0,9 11 6 NNE 1042,7 0,0
20.01.2020 18:00:00 6,5 0,6 9 5 ENE 1042,0 0,0
20.01.2020 17:00:00 7,6 0,6 13 7 ENE 1041,6 0,0
20.01.2020 16:00:00 8,8 0,3 16 9 ENE 1041,3 0,0
20.01.2020 15:00:00 8,9 -1,1 16 9 NE 1041,8 -
20.01.2020 14:00:00 8,7 -1,8 21 11 NE 1041,6 -
20.01.2020 13:00:00 8,6 -1,8 19 11 ENE 1041,4 0,0
20.01.2020 12:00:00 8,1 0,8 15 8 ENE 1041,5 0,0
20.01.2020 11:00:00 6,0 1,5 9 5 NNE 1042,0 -
20.01.2020 10:00:00 4,1 0,2 9 5 NNE 1041,4 -
20.01.2020 09:00:00 3,5 0,0 - - - 1040,9 -
20.01.2020 08:00:00 3,5 -0,5 13 7 NNE 1039,7 0,0
20.01.2020 07:00:00 3,8 0,0 12 6 NNE 1039,0 0,0
20.01.2020 06:00:00 3,8 0,5 12 6 NNE 1038,3 0,0
20.01.2020 05:00:00 4,1 0,8 8 4 NNE 1037,9 0,0
20.01.2020 04:00:00 4,5 0,6 9 5 NE 1037,4 0,0
20.01.2020 03:00:00 4,5 1,4 8 5 NNE 1037,2 0,0
20.01.2020 02:00:00 5,1 1,6 9 5 NNE 1036,6 0,0
20.01.2020 01:00:00 5,4 1,9 9 5 ENE 1036,0 0,0
20.01.2020 00:00:00 4,8 1,8 - - - 1035,9 -
19.01.2020 23:00:00 5,5 1,6 10 5 ENE 1035,0 0,0
19.01.2020 22:00:00 5,0 2,8 - - - 1034,5 -
19.01.2020 21:00:00 6,6 3,6 5 3 ESE 1033,5 0,0
19.01.2020 20:00:00 7,0 4,6 - - - 1032,7 -
19.01.2020 19:00:00 6,7 4,2 - - - 1032,0 -
19.01.2020 18:00:00 7,9 3,7 5 3 N 1030,9 0,0
19.01.2020 17:00:00 8,0 3,6 5 3 NNE 1030,6 -
19.01.2020 16:00:00 8,6 2,5 8 4 NE 1029,8 -
19.01.2020 15:00:00 9,2 3,4 9 5 NNE 1028,7 0,0
19.01.2020 14:00:00 9,3 3,4 15 8 NNE 1028,7 -
19.01.2020 13:00:00 9,2 1,8 16 8 NE 1028,2 0,0
19.01.2020 12:00:00 8,3 3,5 - - - 1028,6 -
19.01.2020 11:00:00 7,8 5,2 - - - 1028,4 -
19.01.2020 10:00:00 6,3 4,8 - - - 1028,0 -
19.01.2020 09:00:00 5,7 4,2 - - - 1027,1 -
19.01.2020 08:00:00 5,6 4,1 - - - 1026,4 -
19.01.2020 07:00:00 5,8 4,3 - - - 1025,9 -
19.01.2020 06:00:00 6,4 5,4 8 4 NNO 1025,2 0,0
19.01.2020 05:00:00 5,8 4,3 - - - 1025,4 -
19.01.2020 04:00:00 5,8 4,3 4 2 NO 1025,2 -
19.01.2020 03:00:00 6,4 6,0 6 4 ONO 1024,9 0,2
19.01.2020 02:00:00 6,1 4,6 4 2 O 1025,0 -
19.01.2020 01:00:00 6,7 4,9 5 3 ONO 1024,7 0,0
19.01.2020 00:00:00 6,4 4,9 2 1 NNE 1024,5 -
18.01.2020 23:00:00 6,8 6,2 5 3 N 1024,0 0,2
18.01.2020 22:00:00 6,2 4,7 4 2 ENE 1024,4 -
18.01.2020 21:00:00 6,4 5,8 10 5 NO 1023,6 0,0
18.01.2020 20:00:00 6,2 4,7 9 5 O 1024,1 -
18.01.2020 19:00:00 6,5 5,0 4 2 NO 1024,0 -
18.01.2020 18:00:00 7,0 6,1 8 4 NNO 1023,1 0,0
18.01.2020 17:00:00 6,9 5,4 - - - 1023,2 -
18.01.2020 16:00:00 6,9 5,4 11 6 O 1022,9 -
18.01.2020 15:00:00 7,0 6,6 9 5 NNO 1022,3 0,8
18.01.2020 14:00:00 6,8 6,4 8 4 NO 1022,2 1,6
18.01.2020 13:00:00 6,4 4,9 - - - 1023,1 -
18.01.2020 12:00:00 6,3 5,9 14 7 NO 1022,9 2,6
18.01.2020 11:00:00 6,3 5,9 11 6 ONO 1023,1 1,8
18.01.2020 10:00:00 6,0 4,5 5 3 O 1023,2 -
18.01.2020 09:00:00 6,2 5,8 6 3 NNO 1022,4 1,6
18.01.2020 08:00:00 6,3 5,9 7 4 NNE 1022,1 1,2
18.01.2020 07:00:00 6,1 5,7 9 5 NE 1021,8 2,6
18.01.2020 06:00:00 6,3 4,9 11 6 ENE 1021,4 0,4
18.01.2020 05:00:00 6,3 4,8 - - - 1021,5 -
18.01.2020 04:00:00 6,9 4,4 12 6 ENE 1021,2 0,0
18.01.2020 03:00:00 7,1 4,2 13 7 ENE 1021,5 0,0
18.01.2020 02:00:00 6,8 4,3 11 6 ENE 1021,9 0,0
18.01.2020 01:00:00 7,3 4,1 9 5 ENE 1021,9 0,0
18.01.2020 00:00:00 6,7 5,0 - - - 1022,9 -
17.01.2020 23:00:00 6,9 4,9 4 2 SSE 1023,5 -
17.01.2020 22:00:00 7,0 4,8 - - - 1023,8 -
17.01.2020 21:00:00 7,2 4,8 2 1 S 1024,3 -
17.01.2020 20:00:00 7,8 4,7 0 0 N 1024,6 -
17.01.2020 19:00:00 8,3 4,8 4 2 OSO 1024,7 -
17.01.2020 18:00:00 8,1 4,6 2 1 S 1024,4 -
17.01.2020 17:00:00 9,7 4,5 5 3 OSO 1023,9 -
17.01.2020 16:00:00 11,1 3,8 8 4 O 1024,5 -
17.01.2020 15:00:00 11,8 4,7 5 3 O 1024,5 -
17.01.2020 14:00:00 10,2 3,7 10 5 ONO 1024,3 0,0
17.01.2020 13:00:00 8,6 3,6 13 7 ONO 1025,2 0,0
17.01.2020 12:00:00 7,3 3,2 14 8 ONO 1026,1 0,0
17.01.2020 11:00:00 5,6 3,1 15 8 ONO 1026,6 0,0
17.01.2020 10:00:00 3,1 1,6 - - - 1027,2 -
17.01.2020 09:00:00 2,3 1,7 10 6 O 1026,6 0,0
17.01.2020 08:00:00 2,0 1,4 10 6 O 1026,5 0,0
17.01.2020 07:00:00 2,3 0,8 13 7 O 1027,2 -
17.01.2020 06:00:00 2,6 1,4 10 5 O 1026,8 0,0
17.01.2020 05:00:00 2,6 1,7 11 6 O 1027,0 0,0
17.01.2020 04:00:00 2,8 2,1 14 7 ONO 1027,6 0,0
17.01.2020 03:00:00 2,8 2,7 14 8 ONO 1028,2 0,0
17.01.2020 02:00:00 2,5 2,4 10 6 ONO 1028,6 0,0
17.01.2020 01:00:00 2,4 2,3 10 6 O 1029,1 0,0
17.01.2020 00:00:00 3,3 1,8 9 5 O 1030,0 -
16.01.2020 23:00:00 3,2 3,1 11 6 ONO 1030,0 0,0
16.01.2020 22:00:00 3,8 2,3 9 5 O 1030,5 -
16.01.2020 21:00:00 4,4 3,7 11 6 ONO 1030,4 0,0
16.01.2020 20:00:00 3,9 2,4 2 1 O 1031,0 -
16.01.2020 19:00:00 5,5 4,0 8 4 ONO 1030,8 0,0
16.01.2020 18:00:00 5,7 4,7 8 5 ONO 1030,7 0,0
16.01.2020 17:00:00 6,1 4,9 8 4 O 1030,5 0,0
16.01.2020 16:00:00 7,2 5,6 5 3 O 1031,1 -
16.01.2020 15:00:00 7,4 5,5 8 4 O 1031,4 -
16.01.2020 14:00:00 7,3 4,6 6 3 ONO 1031,2 0,0
16.01.2020 13:00:00 6,8 4,3 5 3 N 1031,9 0,0
16.01.2020 12:00:00 5,9 3,7 7 4 N 1032,6 0,0
16.01.2020 11:00:00 5,8 4,3 5 3 N 1033,2 0,0
16.01.2020 10:00:00 5,9 4,9 4 2 ONO 1033,0 0,0
16.01.2020 09:00:00 5,7 4,7 3 2 SSO 1032,5 0,0
16.01.2020 08:00:00 5,0 3,5 0 0 N 1032,4 -
16.01.2020 07:00:00 4,9 3,4 - - - 1031,9 -
16.01.2020 06:00:00 5,7 4,5 - - - 1031,4 -
16.01.2020 05:00:00 4,9 3,4 - - - 1031,0 -
16.01.2020 04:00:00 5,0 3,5 0 0 N 1030,7 -
16.01.2020 03:00:00 5,5 4,6 4 2 SO 1030,2 0,0
16.01.2020 02:00:00 5,6 4,7 5 3 O 1030,1 0,0
16.01.2020 01:00:00 5,2 3,7 - - - 1030,5 -
16.01.2020 00:00:00 5,3 3,8 0 0 N 1030,6 -

tt = Temperatura
td = dewpoint
ff = velocità del vento
dd = direzione del vento
ppp = reduced air pressure
rr = precipitazioni

Stazioni seguenti

WeatherPro
AMSI
MeteoEarth